Time,TemperatureF,DewpointF,PressureIn,WindDirection,WindDirectionDegrees,WindSpeedMPH,WindSpeedGustMPH,Humidity,HourlyPrecipIn,Conditions,Clouds,dailyrainin,SoftwareType,DateUTC
2013-03-28 00:00:00,54.4,45.2,29.96,SSE,158,2.5,4.3,71,0.00,,,0.00,WUHU216HW,2013-03-28 06:00:00,
2013-03-28 00:05:00,54.0,44.8,29.96,SSE,158,2.2,2.5,71,0.00,,,0.00,WUHU216HW,2013-03-28 06:05:00,
2013-03-28 00:10:00,54.0,44.8,29.96,South,180,3.4,3.4,71,0.00,,,0.00,WUHU216HW,2013-03-28 06:10:00,
2013-03-28 00:15:00,53.8,45.0,29.96,SSE,158,1.3,3.6,72,0.00,,,0.00,WUHU216HW,2013-03-28 06:15:00,
2013-03-28 00:20:00,53.8,45.0,29.96,SSE,158,2.0,3.6,72,0.00,,,0.00,WUHU216HW,2013-03-28 06:20:00,
2013-03-28 00:25:00,53.8,45.7,29.96,SW,225,0.4,5.4,74,0.00,,,0.00,WUHU216HW,2013-03-28 06:25:00,
2013-03-28 00:30:00,53.8,45.4,29.96,SSE,158,1.8,5.4,73,0.00,,,0.00,WUHU216HW,2013-03-28 06:30:00,
2013-03-28 00:35:00,53.6,45.2,29.95,SSE,158,1.1,3.6,73,0.00,,,0.00,WUHU216HW,2013-03-28 06:35:00,
2013-03-28 00:40:00,53.6,45.5,29.95,SSE,158,2.0,2.5,74,0.00,,,0.00,WUHU216HW,2013-03-28 06:40:00,
2013-03-28 00:45:00,53.6,45.9,29.95,SSE,158,2.7,3.4,75,0.00,,,0.00,WUHU216HW,2013-03-28 06:45:00,
2013-03-28 00:50:00,53.5,45.4,29.95,SE,135,1.6,3.4,74,0.00,,,0.00,WUHU216HW,2013-03-28 06:50:00,
2013-03-28 00:55:00,53.5,45.7,29.95,SE,135,1.3,2.0,75,0.00,,,0.00,WUHU216HW,2013-03-28 06:55:00,
2013-03-28 01:00:00,53.5,45.7,29.95,SE,135,1.1,2.0,75,0.00,,,0.00,WUHU216HW,2013-03-28 07:00:00,
2013-03-28 01:05:00,53.5,45.7,29.95,SSE,158,0.0,1.8,75,0.00,,,0.00,WUHU216HW,2013-03-28 07:05:00,
2013-03-28 01:10:00,53.3,45.2,29.95,SSE,158,0.7,1.3,74,0.00,,,0.00,WUHU216HW,2013-03-28 07:10:00,
2013-03-28 01:15:00,53.1,45.4,29.95,SE,135,1.8,1.8,75,0.00,,,0.00,WUHU216HW,2013-03-28 07:15:00,
2013-03-28 01:20:00,52.9,45.2,29.95,South,180,4.9,4.9,75,0.00,,,0.00,WUHU216HW,2013-03-28 07:20:00,
2013-03-28 01:25:00,52.9,45.5,29.94,SE,135,0.7,4.9,76,0.00,,,0.00,WUHU216HW,2013-03-28 07:25:00,
2013-03-28 01:30:00,52.9,45.5,29.94,SSE,158,0.0,3.8,76,0.00,,,0.00,WUHU216HW,2013-03-28 07:30:00,
2013-03-28 01:35:00,52.9,45.9,29.94,South,180,3.8,3.8,77,0.00,,,0.00,WUHU216HW,2013-03-28 07:35:00,
2013-03-28 01:40:00,53.1,46.1,29.94,SE,135,2.7,3.8,77,0.00,,,0.00,WUHU216HW,2013-03-28 07:40:00,
2013-03-28 01:45:00,52.9,46.3,29.94,SSE,158,2.2,2.7,78,0.00,,,0.00,WUHU216HW,2013-03-28 07:45:00,
2013-03-28 01:50:00,52.9,46.3,29.94,SE,135,0.2,3.6,78,0.00,,,0.00,WUHU216HW,2013-03-28 07:50:00,
2013-03-28 01:55:00,52.9,46.3,29.94,SE,135,0.9,4.5,78,0.00,,,0.00,WUHU216HW,2013-03-28 07:55:00,
2013-03-28 02:00:00,52.9,46.3,29.94,South,180,1.1,4.5,78,0.00,,,0.00,WUHU216HW,2013-03-28 08:00:00,
2013-03-28 02:05:00,52.9,46.3,29.94,SSE,158,1.1,3.8,78,0.00,,,0.00,WUHU216HW,2013-03-28 08:05:00,
2013-03-28 02:10:00,52.9,46.6,29.94,South,180,1.1,3.8,79,0.00,,,0.00,WUHU216HW,2013-03-28 08:10:00,
2013-03-28 02:15:00,52.9,46.3,29.94,SSE,158,2.9,2.9,78,0.00,,,0.00,WUHU216HW,2013-03-28 08:15:00,
2013-03-28 02:20:00,52.9,46.6,29.94,SE,135,0.2,2.9,79,0.00,,,0.00,WUHU216HW,2013-03-28 08:20:00,
2013-03-28 02:25:00,52.9,46.6,29.94,SSE,158,0.2,1.8,79,0.00,,,0.00,WUHU216HW,2013-03-28 08:25:00,
2013-03-28 02:30:00,52.7,46.1,29.93,SSW,203,4.0,4.0,78,0.00,,,0.00,WUHU216HW,2013-03-28 08:30:00,
2013-03-28 02:35:00,52.7,46.8,29.93,South,180,1.1,4.7,80,0.00,,,0.00,WUHU216HW,2013-03-28 08:35:00,
2013-03-28 02:40:00,52.9,47.0,29.93,ESE,113,2.5,4.7,80,0.00,,,0.00,WUHU216HW,2013-03-28 08:40:00,
2013-03-28 02:45:00,52.9,47.0,29.93,ESE,113,1.8,2.9,80,0.00,,,0.00,WUHU216HW,2013-03-28 08:45:00,
2013-03-28 02:50:00,52.9,47.3,29.93,SE,135,1.1,2.2,81,0.00,,,0.00,WUHU216HW,2013-03-28 08:50:00,
2013-03-28 02:55:00,52.9,47.0,29.93,SSE,158,1.6,2.2,80,0.00,,,0.00,WUHU216HW,2013-03-28 08:55:00,
2013-03-28 03:00:00,52.9,47.0,29.93,SE,135,1.6,2.5,80,0.00,,,0.00,WUHU216HW,2013-03-28 09:00:00,
2013-03-28 03:06:00,52.7,46.8,29.92,SSE,158,1.1,2.5,80,0.00,,,0.00,WUHU216HW,2013-03-28 09:06:00,
2013-03-28 03:11:00,52.6,46.9,29.92,South,180,0.4,2.2,81,0.00,,,0.00,WUHU216HW,2013-03-28 09:11:00,
2013-03-28 03:16:00,52.6,46.6,29.92,SSE,158,0.9,1.8,80,0.00,,,0.00,WUHU216HW,2013-03-28 09:16:00,
2013-03-28 03:21:00,52.7,47.1,29.92,South,180,2.7,2.7,81,0.00,,,0.00,WUHU216HW,2013-03-28 09:21:00,
2013-03-28 03:26:00,52.9,47.6,29.92,ESE,113,1.3,2.7,82,0.00,,,0.00,WUHU216HW,2013-03-28 09:26:00,
2013-03-28 03:31:00,53.1,47.8,29.92,ESE,113,0.0,1.8,82,0.00,,,0.00,WUHU216HW,2013-03-28 09:31:00,
2013-03-28 03:36:00,53.3,48.0,29.93,ESE,113,0.7,1.8,82,0.00,,,0.00,WUHU216HW,2013-03-28 09:36:00,
2013-03-28 03:41:00,53.5,47.8,29.93,ESE,113,1.1,1.6,81,0.00,,,0.00,WUHU216HW,2013-03-28 09:41:00,
2013-03-28 03:46:00,53.6,48.0,29.93,ESE,113,1.8,1.8,81,0.00,,,0.00,WUHU216HW,2013-03-28 09:46:00,
2013-03-28 03:51:00,53.6,48.0,29.93,SE,135,0.4,1.8,81,0.00,,,0.00,WUHU216HW,2013-03-28 09:51:00,
2013-03-28 03:56:00,53.6,48.0,29.93,SE,135,0.7,1.3,81,0.00,,,0.00,WUHU216HW,2013-03-28 09:56:00,
2013-03-28 04:01:00,53.8,48.2,29.93,SSE,158,1.8,2.2,81,0.00,,,0.00,WUHU216HW,2013-03-28 10:01:00,
2013-03-28 04:06:00,54.0,48.3,29.93,SSE,158,1.1,4.0,81,0.00,,,0.00,WUHU216HW,2013-03-28 10:06:00,
2013-03-28 04:11:00,54.2,48.5,29.93,SE,135,0.7,4.0,81,0.00,,,0.00,WUHU216HW,2013-03-28 10:11:00,
2013-03-28 04:16:00,54.4,48.7,29.93,SSW,203,2.5,2.5,81,0.00,,,0.00,WUHU216HW,2013-03-28 10:16:00,
2013-03-28 04:21:00,54.4,48.7,29.93,SE,135,1.8,4.3,81,0.00,,,0.00,WUHU216HW,2013-03-28 10:21:00,
2013-03-28 04:26:00,54.5,48.9,29.93,South,180,3.4,4.3,81,0.00,,,0.00,WUHU216HW,2013-03-28 10:26:00,
2013-03-28 04:31:00,54.7,49.0,29.94,South,180,2.0,3.4,81,0.00,,,0.00,WUHU216HW,2013-03-28 10:31:00,
2013-03-28 04:36:00,54.9,49.1,29.93,SE,135,1.3,2.9,81,0.00,,,0.00,WUHU216HW,2013-03-28 10:36:00,
2013-03-28 04:41:00,54.9,49.1,29.93,SSE,158,0.7,2.9,81,0.00,,,0.00,WUHU216HW,2013-03-28 10:41:00,
2013-03-28 04:46:00,54.9,48.9,29.94,SE,135,1.1,2.2,80,0.00,,,0.00,WUHU216HW,2013-03-28 10:46:00,
2013-03-28 04:51:00,55.1,49.3,29.94,ESE,113,3.6,3.6,81,0.00,,,0.00,WUHU216HW,2013-03-28 10:51:00,
2013-03-28 04:56:00,55.1,49.3,29.94,ESE,113,1.8,3.6,81,0.00,,,0.00,WUHU216HW,2013-03-28 10:56:00,
2013-03-28 05:01:00,54.9,49.1,29.93,SE,135,0.9,2.0,81,0.00,,,0.00,WUHU216HW,2013-03-28 11:01:00,
2013-03-28 05:06:00,54.9,49.1,29.94,SE,135,0.4,2.7,81,0.00,,,0.00,WUHU216HW,2013-03-28 11:06:00,
2013-03-28 05:11:00,54.9,48.9,29.94,SSE,158,2.5,2.7,80,0.00,,,0.00,WUHU216HW,2013-03-28 11:11:00,
2013-03-28 05:16:00,54.9,48.9,29.94,SE,135,1.6,2.5,80,0.00,,,0.00,WUHU216HW,2013-03-28 11:16:00,
2013-03-28 05:21:00,54.7,48.7,29.94,SE,135,0.9,2.2,80,0.00,,,0.00,WUHU216HW,2013-03-28 11:21:00,
2013-03-28 05:26:00,54.7,48.7,29.94,ESE,113,2.7,3.4,80,0.00,,,0.00,WUHU216HW,2013-03-28 11:26:00,
2013-03-28 05:31:00,54.7,49.0,29.94,SE,135,1.1,3.4,81,0.00,,,0.00,WUHU216HW,2013-03-28 11:31:00,
2013-03-28 05:36:00,54.7,49.0,29.95,SE,135,2.5,2.5,81,0.00,,,0.00,WUHU216HW,2013-03-28 11:36:00,
2013-03-28 05:40:00,54.9,49.1,29.95,ESE,113,2.2,3.4,81,0.00,,,0.00,WUHU216HW,2013-03-28 11:40:00,
2013-03-28 05:45:00,54.9,49.1,29.94,SE,135,1.1,3.4,81,0.00,,,0.00,WUHU216HW,2013-03-28 11:45:00,
2013-03-28 05:50:00,54.9,49.1,29.95,SE,135,2.0,3.4,81,0.00,,,0.00,WUHU216HW,2013-03-28 11:50:00,
2013-03-28 05:55:00,54.9,49.1,29.95,SE,135,2.2,3.4,81,0.00,,,0.00,WUHU216HW,2013-03-28 11:55:00,
2013-03-28 06:00:00,54.7,49.0,29.95,SE,135,1.6,2.9,81,0.00,,,0.00,WUHU216HW,2013-03-28 12:00:00,
2013-03-28 06:05:00,54.7,49.0,29.96,SE,135,0.7,2.5,81,0.00,,,0.00,WUHU216HW,2013-03-28 12:05:00,
2013-03-28 06:10:00,54.7,49.0,29.96,SE,135,1.8,2.5,81,0.00,,,0.00,WUHU216HW,2013-03-28 12:10:00,
2013-03-28 06:15:00,54.9,49.1,29.96,ESE,113,2.7,3.4,81,0.00,,,0.00,WUHU216HW,2013-03-28 12:15:00,
2013-03-28 06:20:00,54.7,49.0,29.96,South,180,1.1,3.4,81,0.00,,,0.00,WUHU216HW,2013-03-28 12:20:00,
2013-03-28 06:25:00,54.9,49.1,29.96,ESE,113,1.3,3.4,81,0.00,,,0.00,WUHU216HW,2013-03-28 12:25:00,
2013-03-28 06:30:00,54.9,49.1,29.96,SE,135,3.1,3.4,81,0.00,,,0.00,WUHU216HW,2013-03-28 12:30:00,
2013-03-28 06:35:00,54.9,49.5,29.97,SE,135,2.0,3.1,82,0.00,,,0.00,WUHU216HW,2013-03-28 12:35:00,
2013-03-28 06:40:00,54.9,49.5,29.97,SSE,158,1.6,3.6,82,0.00,,,0.00,WUHU216HW,2013-03-28 12:40:00,
2013-03-28 06:45:00,55.1,49.7,29.97,SE,135,1.8,3.6,82,0.00,,,0.00,WUHU216HW,2013-03-28 12:45:00,
2013-03-28 06:50:00,55.1,49.7,29.97,SE,135,2.0,3.4,82,0.00,,,0.00,WUHU216HW,2013-03-28 12:50:00,
2013-03-28 06:55:00,55.1,49.7,29.97,ESE,113,2.5,3.4,82,0.00,,,0.00,WUHU216HW,2013-03-28 12:55:00,
2013-03-28 07:00:00,55.1,49.7,29.97,SE,135,0.7,3.4,82,0.00,,,0.00,WUHU216HW,2013-03-28 13:00:00,
2013-03-28 07:05:00,55.3,49.8,29.97,ESE,113,2.0,3.4,82,0.00,,,0.00,WUHU216HW,2013-03-28 13:05:00,
2013-03-28 07:10:00,55.4,50.0,29.97,SE,135,2.2,3.6,82,0.00,,,0.00,WUHU216HW,2013-03-28 13:10:00,
2013-03-28 07:15:00,55.4,50.0,29.97,SE,135,3.1,4.3,82,0.00,,,0.00,WUHU216HW,2013-03-28 13:15:00,
2013-03-28 07:20:00,55.4,50.0,29.97,SE,135,2.7,4.3,82,0.00,,,0.00,WUHU216HW,2013-03-28 13:20:00,
2013-03-28 07:25:00,55.6,50.1,29.97,SE,135,2.2,2.7,82,0.00,,,0.00,WUHU216HW,2013-03-28 13:25:00,
2013-03-28 07:30:00,55.8,50.3,29.97,SE,135,1.3,3.8,82,0.00,,,0.00,WUHU216HW,2013-03-28 13:30:00,
2013-03-28 07:35:00,56.0,50.5,29.97,SSE,158,2.0,3.8,82,0.00,,,0.00,WUHU216HW,2013-03-28 13:35:00,
2013-03-28 07:40:00,56.2,50.7,29.97,SE,135,1.1,3.6,82,0.00,,,0.00,WUHU216HW,2013-03-28 13:40:00,
2013-03-28 07:45:00,56.5,51.0,29.98,SSE,158,1.8,3.6,82,0.00,,,0.00,WUHU216HW,2013-03-28 13:45:00,
2013-03-28 07:50:00,56.5,51.4,29.97,South,180,0.9,2.9,83,0.00,,,0.00,WUHU216HW,2013-03-28 13:50:00,
2013-03-28 07:56:00,56.9,51.4,29.97,SE,135,1.8,4.7,82,0.00,,,0.00,WUHU216HW,2013-03-28 13:56:00,
2013-03-28 08:01:00,57.1,51.6,29.97,SE,135,4.5,4.7,82,0.00,,,0.00,WUHU216HW,2013-03-28 14:01:00,
2013-03-28 08:06:00,57.4,51.9,29.98,SE,135,2.5,4.5,82,0.00,,,0.00,WUHU216HW,2013-03-28 14:06:00,
2013-03-28 08:11:00,57.8,52.0,29.98,South,180,6.7,6.7,81,0.00,,,0.00,WUHU216HW,2013-03-28 14:11:00,
2013-03-28 08:16:00,57.8,52.0,29.98,SE,135,2.5,6.7,81,0.00,,,0.00,WUHU216HW,2013-03-28 14:16:00,
2013-03-28 08:21:00,58.0,52.2,29.98,South,180,2.5,4.7,81,0.00,,,0.00,WUHU216HW,2013-03-28 14:21:00,
2013-03-28 08:26:00,58.0,52.2,29.98,SSE,158,0.7,4.5,81,0.00,,,0.00,WUHU216HW,2013-03-28 14:26:00,
2013-03-28 08:31:00,58.7,52.9,29.98,East,90,0.4,4.5,81,0.00,,,0.00,WUHU216HW,2013-03-28 14:31:00,
2013-03-28 08:36:00,59.0,52.9,29.98,SE,135,4.3,4.3,80,0.00,,,0.00,WUHU216HW,2013-03-28 14:36:00,
2013-03-28 08:41:00,59.2,53.1,29.98,SE,135,5.4,5.4,80,0.00,,,0.00,WUHU216HW,2013-03-28 14:41:00,
2013-03-28 08:46:00,59.6,53.5,29.98,SSE,158,8.1,8.1,80,0.00,,,0.00,WUHU216HW,2013-03-28 14:46:00,
2013-03-28 08:51:00,59.8,53.3,29.99,South,180,8.3,8.3,79,0.00,,,0.00,WUHU216HW,2013-03-28 14:51:00,
2013-03-28 08:56:00,60.1,53.6,29.99,SSW,203,8.3,8.3,79,0.00,,,0.00,WUHU216HW,2013-03-28 14:56:00,
2013-03-28 09:01:00,60.5,54.0,29.99,South,180,5.1,8.3,79,0.00,,,0.00,WUHU216HW,2013-03-28 15:01:00,
2013-03-28 09:06:00,60.7,53.8,29.99,SSW,203,3.1,9.2,78,0.00,,,0.00,WUHU216HW,2013-03-28 15:06:00,
2013-03-28 09:11:00,60.8,54.0,29.99,SSE,158,3.4,9.2,78,0.00,,,0.00,WUHU216HW,2013-03-28 15:11:00,
2013-03-28 09:16:00,61.2,54.0,29.99,SSE,158,4.7,13.4,77,0.00,,,0.00,WUHU216HW,2013-03-28 15:16:00,
2013-03-28 09:21:00,61.2,53.7,29.99,South,180,10.1,13.4,76,0.00,,,0.00,WUHU216HW,2013-03-28 15:21:00,
2013-03-28 09:26:00,61.0,53.8,29.99,South,180,3.4,11.4,77,0.00,,,0.00,WUHU216HW,2013-03-28 15:26:00,
2013-03-28 09:30:00,60.8,53.6,29.99,South,180,8.5,10.7,77,0.00,,,0.00,WUHU216HW,2013-03-28 15:30:00,
2013-03-28 09:36:00,60.8,53.6,29.99,SSE,158,3.4,8.5,77,0.00,,,0.00,WUHU216HW,2013-03-28 15:36:00,
2013-03-28 09:41:00,61.0,53.8,29.99,SSW,203,4.0,10.3,77,0.00,,,0.00,WUHU216HW,2013-03-28 15:41:00,
2013-03-28 09:46:00,61.4,54.1,29.99,South,180,3.4,10.3,77,0.00,,,0.00,WUHU216HW,2013-03-28 15:46:00,
2013-03-28 09:51:00,62.1,54.5,29.99,SW,225,6.3,8.5,76,0.00,,,0.00,WUHU216HW,2013-03-28 15:51:00,
2013-03-28 09:56:00,62.3,54.2,29.99,SSW,203,4.7,8.5,75,0.00,,,0.00,WUHU216HW,2013-03-28 15:56:00,
2013-03-28 10:00:00,62.5,54.4,29.99,SE,135,5.4,7.2,75,0.00,,,0.00,WUHU216HW,2013-03-28 16:00:00,
2013-03-28 10:05:00,62.8,54.7,29.99,SSW,203,7.4,11.4,75,0.00,,,0.00,WUHU216HW,2013-03-28 16:05:00,
2013-03-28 10:11:00,63.0,54.9,29.99,SSE,158,4.3,11.4,75,0.00,,,0.00,WUHU216HW,2013-03-28 16:11:00,
2013-03-28 10:16:00,63.4,55.3,29.99,SSE,158,6.0,9.2,75,0.00,,,0.00,WUHU216HW,2013-03-28 16:16:00,
2013-03-28 10:21:00,63.7,55.3,29.99,SE,135,4.7,9.8,74,0.00,,,0.00,WUHU216HW,2013-03-28 16:21:00,
2013-03-28 10:26:00,63.5,55.1,29.99,SSE,158,6.3,11.2,74,0.00,,,0.00,WUHU216HW,2013-03-28 16:26:00,
2013-03-28 10:31:00,63.7,55.3,29.99,SE,135,5.6,11.4,74,0.00,,,0.00,WUHU216HW,2013-03-28 16:31:00,
2013-03-28 10:36:00,63.4,54.9,29.99,SSW,203,8.5,11.9,74,0.00,,,0.00,WUHU216HW,2013-03-28 16:36:00,
2013-03-28 10:41:00,63.4,54.9,29.99,SSE,158,4.5,11.9,74,0.00,,,0.00,WUHU216HW,2013-03-28 16:41:00,
2013-03-28 10:46:00,63.4,54.9,29.99,South,180,6.0,8.7,74,0.00,,,0.00,WUHU216HW,2013-03-28 16:46:00,
2013-03-28 10:51:00,63.4,54.9,29.99,SSE,158,12.8,12.8,74,0.00,,,0.00,WUHU216HW,2013-03-28 16:51:00,
2013-03-28 10:56:00,63.5,55.1,29.98,SE,135,4.0,12.8,74,0.00,,,0.00,WUHU216HW,2013-03-28 16:56:00,
2013-03-28 11:01:00,64.1,55.6,29.98,SSE,158,4.3,8.9,74,0.00,,,0.00,WUHU216HW,2013-03-28 17:01:00,
2013-03-28 11:06:00,64.6,55.8,29.98,South,180,4.0,8.9,73,0.00,,,0.00,WUHU216HW,2013-03-28 17:06:00,
2013-03-28 11:11:00,64.8,55.6,29.98,South,180,10.1,10.1,72,0.00,,,0.00,WUHU216HW,2013-03-28 17:11:00,
2013-03-28 11:16:00,64.6,55.8,29.98,ESE,113,2.9,10.1,73,0.00,,,0.00,WUHU216HW,2013-03-28 17:16:00,
2013-03-28 11:21:00,64.6,55.8,29.98,South,180,5.8,9.8,73,0.00,,,0.00,WUHU216HW,2013-03-28 17:21:00,
2013-03-28 11:25:00,64.6,55.8,29.98,South,180,6.9,9.8,73,0.00,,,0.00,WUHU216HW,2013-03-28 17:25:00,
2013-03-28 11:31:00,65.0,56.2,29.98,SSE,158,4.3,8.5,73,0.00,,,0.00,WUHU216HW,2013-03-28 17:31:00,
2013-03-28 11:36:00,65.2,55.9,29.98,SSE,158,3.6,6.5,72,0.00,,,0.00,WUHU216HW,2013-03-28 17:36:00,
2013-03-28 11:41:00,65.3,56.1,29.98,SSE,158,3.8,6.9,72,0.00,,,0.00,WUHU216HW,2013-03-28 17:41:00,
2013-03-28 11:46:00,65.7,56.4,29.98,SSE,158,5.8,7.6,72,0.00,,,0.00,WUHU216HW,2013-03-28 17:46:00,
2013-03-28 11:51:00,65.9,56.3,29.97,South,180,6.9,7.6,71,0.00,,,0.00,WUHU216HW,2013-03-28 17:51:00,
2013-03-28 11:56:00,66.2,56.5,29.97,SSW,203,3.8,7.2,71,0.00,,,0.00,WUHU216HW,2013-03-28 17:56:00,
2013-03-28 12:01:00,67.0,56.9,29.97,SSE,158,7.8,9.8,70,0.00,,,0.00,WUHU216HW,2013-03-28 18:01:00,
2013-03-28 12:06:00,67.5,56.6,29.97,South,180,5.1,9.8,68,0.00,,,0.00,WUHU216HW,2013-03-28 18:06:00,
2013-03-28 12:11:00,68.0,56.7,29.97,SSE,158,7.4,11.4,67,0.00,,,0.00,WUHU216HW,2013-03-28 18:11:00,
2013-03-28 12:16:00,69.1,56.8,29.97,South,180,8.9,11.4,65,0.00,,,0.00,WUHU216HW,2013-03-28 18:16:00,
2013-03-28 12:21:00,68.9,56.7,29.97,SSE,158,6.3,10.3,65,0.00,,,0.00,WUHU216HW,2013-03-28 18:21:00,
2013-03-28 12:26:00,69.1,56.8,29.97,SSE,158,8.9,10.3,65,0.00,,,0.00,WUHU216HW,2013-03-28 18:26:00,
2013-03-28 12:31:00,68.8,56.5,29.97,WSW,248,6.3,8.9,65,0.00,,,0.00,WUHU216HW,2013-03-28 18:31:00,
2013-03-28 12:36:00,68.9,56.7,29.96,SSE,158,8.7,8.7,65,0.00,,,0.00,WUHU216HW,2013-03-28 18:36:00,
2013-03-28 12:41:00,70.0,57.2,29.96,SSE,158,8.5,10.7,64,0.00,,,0.00,WUHU216HW,2013-03-28 18:41:00,
2013-03-28 12:46:00,69.5,56.8,29.97,SSE,158,13.4,13.4,64,0.00,,,0.00,WUHU216HW,2013-03-28 18:46:00,
2013-03-28 12:51:00,68.4,56.2,29.96,SE,135,7.6,13.4,65,0.00,,,0.00,WUHU216HW,2013-03-28 18:51:00,
2013-03-28 12:56:00,68.2,56.4,29.96,SSE,158,5.8,9.6,66,0.00,,,0.00,WUHU216HW,2013-03-28 18:56:00,
2013-03-28 13:01:00,68.2,56.4,29.96,East,90,7.8,11.4,66,0.00,,,0.00,WUHU216HW,2013-03-28 19:01:00,
2013-03-28 13:06:00,69.1,56.8,29.96,SSE,158,7.6,11.4,65,0.00,,,0.00,WUHU216HW,2013-03-28 19:06:00,
2013-03-28 13:11:00,70.4,57.6,29.95,ESE,113,4.0,9.8,64,0.00,,,0.00,WUHU216HW,2013-03-28 19:11:00,
2013-03-28 13:16:00,70.0,56.4,29.95,SSE,158,9.2,11.6,62,0.00,,,0.00,WUHU216HW,2013-03-28 19:16:00,
2013-03-28 13:21:00,70.0,57.2,29.94,South,180,4.9,11.6,64,0.00,,,0.00,WUHU216HW,2013-03-28 19:21:00,
2013-03-28 13:26:00,69.8,56.7,29.94,ESE,113,6.9,13.4,63,0.00,,,0.00,WUHU216HW,2013-03-28 19:26:00,
2013-03-28 13:31:00,70.2,57.1,29.94,South,180,6.7,13.4,63,0.00,,,0.00,WUHU216HW,2013-03-28 19:31:00,
2013-03-28 13:36:00,71.5,58.2,29.94,SE,135,6.3,10.3,63,0.00,,,0.00,WUHU216HW,2013-03-28 19:36:00,
2013-03-28 13:41:00,72.4,57.7,29.94,South,180,6.3,7.4,60,0.00,,,0.00,WUHU216HW,2013-03-28 19:41:00,
2013-03-28 13:46:00,71.6,57.5,29.94,SSW,203,7.4,7.4,61,0.00,,,0.00,WUHU216HW,2013-03-28 19:46:00,
2013-03-28 13:51:00,71.5,57.3,29.93,SSE,158,4.7,9.6,61,0.00,,,0.00,WUHU216HW,2013-03-28 19:51:00,
2013-03-28 13:56:00,71.6,57.5,29.93,South,180,7.2,9.6,61,0.00,,,0.00,WUHU216HW,2013-03-28 19:56:00,
2013-03-28 14:01:00,71.8,57.3,29.92,SE,135,4.5,9.2,60,0.00,,,0.00,WUHU216HW,2013-03-28 20:01:00,
2013-03-28 14:05:00,72.4,57.7,29.92,South,180,6.0,9.2,60,0.00,,,0.00,WUHU216HW,2013-03-28 20:05:00,
2013-03-28 14:10:00,72.4,57.7,29.92,SSW,203,5.4,8.5,60,0.00,,,0.00,WUHU216HW,2013-03-28 20:10:00,
2013-03-28 14:15:00,72.4,57.3,29.92,ESE,113,7.8,9.2,59,0.00,,,0.00,WUHU216HW,2013-03-28 20:15:00,
2013-03-28 14:20:00,71.8,56.7,29.92,South,180,4.7,11.2,59,0.00,,,0.00,WUHU216HW,2013-03-28 20:20:00,
2013-03-28 14:25:00,72.4,57.3,29.92,SE,135,6.9,11.2,59,0.00,,,0.00,WUHU216HW,2013-03-28 20:25:00,
2013-03-28 14:30:00,72.2,57.1,29.92,SW,225,10.3,10.3,59,0.00,,,0.00,WUHU216HW,2013-03-28 20:30:00,
2013-03-28 14:35:00,71.8,56.7,29.92,South,180,7.6,11.0,59,0.00,,,0.00,WUHU216HW,2013-03-28 20:35:00,
2013-03-28 14:40:00,71.8,56.7,29.92,SSE,158,6.5,12.5,59,0.00,,,0.00,WUHU216HW,2013-03-28 20:40:00,
2013-03-28 14:46:00,72.0,57.4,29.92,SSE,158,4.7,12.5,60,0.00,,,0.00,WUHU216HW,2013-03-28 20:46:00,
2013-03-28 14:51:00,72.5,57.3,29.92,SSE,158,6.5,7.2,59,0.00,,,0.00,WUHU216HW,2013-03-28 20:51:00,
2013-03-28 14:56:00,72.5,56.9,29.92,South,180,6.7,13.4,58,0.00,,,0.00,WUHU216HW,2013-03-28 20:56:00,
2013-03-28 15:01:00,73.1,56.9,29.91,SSE,158,5.8,13.4,57,0.00,,,0.00,WUHU216HW,2013-03-28 21:01:00,
2013-03-28 15:06:00,73.4,57.2,29.91,SSW,203,7.8,8.7,57,0.00,,,0.00,WUHU216HW,2013-03-28 21:06:00,
2013-03-28 15:11:00,73.8,57.1,29.91,SSE,158,6.0,10.1,56,0.00,,,0.00,WUHU216HW,2013-03-28 21:11:00,
2013-03-28 15:16:00,73.6,56.9,29.91,SSE,158,9.2,10.1,56,0.00,,,0.00,WUHU216HW,2013-03-28 21:16:00,
2013-03-28 15:21:00,73.3,56.5,29.91,SSE,158,10.5,10.5,56,0.00,,,0.00,WUHU216HW,2013-03-28 21:21:00,
2013-03-28 15:26:00,73.1,56.9,29.91,SE,135,3.6,10.5,57,0.00,,,0.00,WUHU216HW,2013-03-28 21:26:00,
2013-03-28 15:31:00,72.9,56.7,29.91,SSE,158,6.3,8.3,57,0.00,,,0.00,WUHU216HW,2013-03-28 21:31:00,
2013-03-28 15:36:00,72.7,56.5,29.91,SSE,158,5.1,7.6,57,0.00,,,0.00,WUHU216HW,2013-03-28 21:36:00,
2013-03-28 15:41:00,73.3,57.0,29.91,SSE,158,4.0,8.9,57,0.00,,,0.00,WUHU216HW,2013-03-28 21:41:00,
2013-03-28 15:46:00,73.4,56.7,29.91,ESE,113,9.8,9.8,56,0.00,,,0.00,WUHU216HW,2013-03-28 21:46:00,
2013-03-28 15:51:00,72.9,56.2,29.91,South,180,3.4,10.7,56,0.00,,,0.00,WUHU216HW,2013-03-28 21:51:00,
2013-03-28 15:56:00,72.4,56.2,29.91,SSE,158,7.4,10.7,57,0.00,,,0.00,WUHU216HW,2013-03-28 21:56:00,
2013-03-28 16:01:00,72.4,56.7,29.91,SSW,203,10.7,10.7,58,0.00,,,0.00,WUHU216HW,2013-03-28 22:01:00,
2013-03-28 16:06:00,72.5,56.9,29.91,South,180,4.0,10.7,58,0.00,,,0.00,WUHU216HW,2013-03-28 22:06:00,
2013-03-28 16:11:00,72.5,56.9,29.91,SSE,158,3.8,9.8,58,0.00,,,0.00,WUHU216HW,2013-03-28 22:11:00,
2013-03-28 16:16:00,72.5,56.3,29.91,WSW,248,7.2,9.8,57,0.00,,,0.00,WUHU216HW,2013-03-28 22:16:00,
2013-03-28 16:21:00,72.5,56.9,29.91,SSE,158,4.7,9.4,58,0.00,,,0.00,WUHU216HW,2013-03-28 22:21:00,
2013-03-28 16:26:00,72.0,56.3,29.91,ESE,113,6.9,7.6,58,0.00,,,0.00,WUHU216HW,2013-03-28 22:26:00,
2013-03-28 16:31:00,71.6,56.5,29.91,SSE,158,11.4,11.4,59,0.00,,,0.00,WUHU216HW,2013-03-28 22:31:00,
2013-03-28 16:37:00,71.3,56.7,29.91,SSW,203,10.1,11.4,60,0.00,,,0.00,WUHU216HW,2013-03-28 22:37:00,
2013-03-28 16:41:00,71.1,56.6,29.91,SSW,203,4.9,10.1,60,0.00,,,0.00,WUHU216HW,2013-03-28 22:41:00,
2013-03-28 16:47:00,71.3,56.7,29.91,SSE,158,12.5,12.5,60,0.00,,,0.00,WUHU216HW,2013-03-28 22:47:00,
2013-03-28 16:52:00,71.3,56.7,29.91,SSE,158,8.3,12.5,60,0.00,,,0.00,WUHU216HW,2013-03-28 22:52:00,
2013-03-28 16:57:00,71.3,57.2,29.92,SW,225,6.3,9.2,61,0.00,,,0.00,WUHU216HW,2013-03-28 22:57:00,
2013-03-28 17:02:00,71.5,56.9,29.92,WSW,248,6.0,7.6,60,0.00,,,0.00,WUHU216HW,2013-03-28 23:02:00,
2013-03-28 17:07:00,71.5,56.9,29.91,SW,225,4.3,7.6,60,0.00,,,0.00,WUHU216HW,2013-03-28 23:07:00,
2013-03-28 17:12:00,71.5,56.9,29.92,South,180,1.1,10.1,60,0.00,,,0.00,WUHU216HW,2013-03-28 23:12:00,
2013-03-28 17:17:00,71.3,56.7,29.92,WSW,248,5.4,10.1,60,0.00,,,0.00,WUHU216HW,2013-03-28 23:17:00,
2013-03-28 17:22:00,70.9,56.9,29.92,SSW,203,4.3,8.7,61,0.00,,,0.00,WUHU216HW,2013-03-28 23:22:00,
2013-03-28 17:27:00,70.9,56.4,29.92,SSW,203,4.0,7.4,60,0.00,,,0.00,WUHU216HW,2013-03-28 23:27:00,
2013-03-28 17:32:00,70.6,56.5,29.92,SSW,203,2.9,7.4,61,0.00,,,0.00,WUHU216HW,2013-03-28 23:32:00,
2013-03-28 17:37:00,70.4,56.3,29.92,SW,225,4.3,7.2,61,0.00,,,0.00,WUHU216HW,2013-03-28 23:37:00,
2013-03-28 17:42:00,70.4,56.3,29.92,SSW,203,1.8,7.2,61,0.00,,,0.00,WUHU216HW,2013-03-28 23:42:00,
2013-03-28 17:47:00,70.2,56.2,29.92,South,180,5.1,6.3,61,0.00,,,0.00,WUHU216HW,2013-03-28 23:47:00,
2013-03-28 17:52:00,69.8,56.3,29.92,South,180,2.2,6.3,62,0.00,,,0.00,WUHU216HW,2013-03-28 23:52:00,
2013-03-28 17:57:00,69.8,56.3,29.92,SW,225,5.1,6.5,62,0.00,,,0.00,WUHU216HW,2013-03-28 23:57:00,
2013-03-28 18:02:00,69.7,56.1,29.92,South,180,2.0,8.1,62,0.00,,,0.00,WUHU216HW,2013-03-29 00:02:00,
2013-03-28 18:07:00,69.5,56.4,29.92,SW,225,3.4,8.1,63,0.00,,,0.00,WUHU216HW,2013-03-29 00:07:00,
2013-03-28 18:12:00,69.3,56.2,29.92,SSE,158,3.4,5.8,63,0.00,,,0.00,WUHU216HW,2013-03-29 00:12:00,
2013-03-28 18:17:00,69.1,56.0,29.92,South,180,3.6,6.5,63,0.00,,,0.00,WUHU216HW,2013-03-29 00:17:00,
2013-03-28 18:22:00,68.8,56.1,29.92,SW,225,4.9,8.1,64,0.00,,,0.00,WUHU216HW,2013-03-29 00:22:00,
2013-03-28 18:27:00,68.6,55.9,29.92,South,180,3.8,8.1,64,0.00,,,0.00,WUHU216HW,2013-03-29 00:27:00,
2013-03-28 18:32:00,68.4,55.7,29.92,South,180,6.5,9.2,64,0.00,,,0.00,WUHU216HW,2013-03-29 00:32:00,
2013-03-28 18:37:00,68.0,55.8,29.92,South,180,4.5,9.2,65,0.00,,,0.00,WUHU216HW,2013-03-29 00:37:00,
2013-03-28 18:42:00,68.0,55.8,29.92,South,180,4.3,8.3,65,0.00,,,0.00,WUHU216HW,2013-03-29 00:42:00,
2013-03-28 18:47:00,67.7,55.9,29.93,SSE,158,4.7,7.6,66,0.00,,,0.00,WUHU216HW,2013-03-29 00:47:00,
2013-03-28 18:52:00,67.5,55.7,29.92,South,180,4.0,6.5,66,0.00,,,0.00,WUHU216HW,2013-03-29 00:52:00,
2013-03-28 18:57:00,67.3,56.0,29.93,South,180,2.9,6.7,67,0.00,,,0.00,WUHU216HW,2013-03-29 00:57:00,
2013-03-28 19:02:00,67.1,55.8,29.93,SSE,158,5.1,7.6,67,0.00,,,0.00,WUHU216HW,2013-03-29 01:02:00,
2013-03-28 19:07:00,67.0,56.1,29.93,SE,135,6.3,8.3,68,0.00,,,0.00,WUHU216HW,2013-03-29 01:07:00,
2013-03-28 19:12:00,66.8,55.9,29.93,South,180,4.9,8.3,68,0.00,,,0.00,WUHU216HW,2013-03-29 01:12:00,
2013-03-28 19:17:00,66.6,55.7,29.93,South,180,4.0,8.1,68,0.00,,,0.00,WUHU216HW,2013-03-29 01:17:00,
2013-03-28 19:22:00,66.4,55.9,29.93,SSE,158,8.5,8.5,69,0.00,,,0.00,WUHU216HW,2013-03-29 01:22:00,
2013-03-28 19:27:00,66.4,55.9,29.93,SSE,158,3.6,8.5,69,0.00,,,0.00,WUHU216HW,2013-03-29 01:27:00,
2013-03-28 19:32:00,66.2,55.7,29.93,SSE,158,4.7,6.9,69,0.00,,,0.00,WUHU216HW,2013-03-29 01:32:00,
2013-03-28 19:37:00,66.2,55.7,29.93,SE,135,5.6,6.3,69,0.00,,,0.00,WUHU216HW,2013-03-29 01:37:00,
2013-03-28 19:42:00,66.2,56.2,29.93,SSE,158,4.0,7.6,70,0.00,,,0.00,WUHU216HW,2013-03-29 01:42:00,
2013-03-28 19:47:00,66.1,56.0,29.93,SSE,158,5.4,7.6,70,0.00,,,0.00,WUHU216HW,2013-03-29 01:47:00,
2013-03-28 19:52:00,66.1,56.0,29.93,SE,135,5.8,6.3,70,0.00,,,0.00,WUHU216HW,2013-03-29 01:52:00,
2013-03-28 19:58:00,66.1,56.0,29.93,SSE,158,6.3,6.3,70,0.00,,,0.00,WUHU216HW,2013-03-29 01:58:00,
2013-03-28 20:03:00,65.9,55.8,29.93,SSE,158,5.1,7.2,70,0.00,,,0.00,WUHU216HW,2013-03-29 02:03:00,
2013-03-28 20:08:00,65.9,55.8,29.93,SSW,203,4.9,7.2,70,0.00,,,0.00,WUHU216HW,2013-03-29 02:08:00,
2013-03-28 20:13:00,65.7,55.7,29.94,South,180,6.7,6.7,70,0.00,,,0.00,WUHU216HW,2013-03-29 02:13:00,
2013-03-28 20:18:00,65.5,55.5,29.94,SSE,158,2.5,9.2,70,0.00,,,0.00,WUHU216HW,2013-03-29 02:18:00,
2013-03-28 20:23:00,65.5,55.9,29.94,South,180,4.9,9.2,71,0.00,,,0.00,WUHU216HW,2013-03-29 02:23:00,
2013-03-28 20:28:00,65.3,55.7,29.93,South,180,3.6,5.6,71,0.00,,,0.00,WUHU216HW,2013-03-29 02:28:00,
2013-03-28 20:33:00,65.2,55.5,29.93,South,180,4.5,6.5,71,0.00,,,0.00,WUHU216HW,2013-03-29 02:33:00,
2013-03-28 20:38:00,65.2,55.5,29.93,South,180,4.0,6.5,71,0.00,,,0.00,WUHU216HW,2013-03-29 02:38:00,
2013-03-28 20:43:00,65.2,55.5,29.93,South,180,3.4,4.0,71,0.00,,,0.00,WUHU216HW,2013-03-29 02:43:00,
2013-03-28 20:48:00,65.0,55.8,29.93,SSW,203,3.4,5.6,72,0.00,,,0.00,WUHU216HW,2013-03-29 02:48:00,
2013-03-28 20:53:00,64.8,55.6,29.93,South,180,4.3,8.3,72,0.00,,,0.00,WUHU216HW,2013-03-29 02:53:00,
2013-03-28 20:58:00,64.8,55.6,29.93,SSE,158,5.8,8.3,72,0.00,,,0.00,WUHU216HW,2013-03-29 02:58:00,
2013-03-28 21:03:00,64.6,55.5,29.93,South,180,6.9,7.2,72,0.00,,,0.00,WUHU216HW,2013-03-29 03:03:00,
2013-03-28 21:08:00,64.4,55.3,29.93,South,180,6.3,6.9,72,0.00,,,0.00,WUHU216HW,2013-03-29 03:08:00,
2013-03-28 21:13:00,64.4,55.6,29.93,South,180,4.0,6.3,73,0.00,,,0.00,WUHU216HW,2013-03-29 03:13:00,
2013-03-28 21:18:00,64.4,55.6,29.93,South,180,6.9,8.3,73,0.00,,,0.00,WUHU216HW,2013-03-29 03:18:00,
2013-03-28 21:23:00,64.8,56.0,29.93,South,180,6.7,8.3,73,0.00,,,0.00,WUHU216HW,2013-03-29 03:23:00,
2013-03-28 21:28:00,64.8,55.6,29.94,South,180,4.3,6.7,72,0.00,,,0.00,WUHU216HW,2013-03-29 03:28:00,
2013-03-28 21:33:00,65.0,55.8,29.94,SSE,158,5.1,7.6,72,0.00,,,0.00,WUHU216HW,2013-03-29 03:33:00,
2013-03-28 21:38:00,65.0,55.8,29.94,South,180,7.6,7.6,72,0.00,,,0.00,WUHU216HW,2013-03-29 03:38:00,
2013-03-28 21:43:00,65.0,55.8,29.94,SE,135,4.7,7.6,72,0.00,,,0.00,WUHU216HW,2013-03-29 03:43:00,
2013-03-28 21:48:00,65.0,55.8,29.94,SSW,203,7.4,7.6,72,0.00,,,0.00,WUHU216HW,2013-03-29 03:48:00,
2013-03-28 21:53:00,65.0,55.8,29.94,SSW,203,3.6,7.6,72,0.00,,,0.00,WUHU216HW,2013-03-29 03:53:00,
2013-03-28 21:58:00,65.0,55.8,29.94,South,180,6.0,6.0,72,0.00,,,0.00,WUHU216HW,2013-03-29 03:58:00,
2013-03-28 22:00:00,65.0,55.8,29.94,South,180,5.1,6.0,72,0.00,,,0.00,WUHU216HW,2013-03-29 04:00:00,
2013-03-28 22:05:00,64.8,55.6,29.94,SE,135,5.4,6.9,72,0.00,,,0.00,WUHU216HW,2013-03-29 04:05:00,
2013-03-28 22:10:00,64.8,55.6,29.94,SSE,158,5.6,6.9,72,0.00,,,0.00,WUHU216HW,2013-03-29 04:10:00,
2013-03-28 22:15:00,64.6,55.8,29.95,South,180,6.7,6.7,73,0.00,,,0.00,WUHU216HW,2013-03-29 04:15:00,
2013-03-28 22:20:00,64.6,55.8,29.95,SE,135,8.5,8.5,73,0.00,,,0.00,WUHU216HW,2013-03-29 04:20:00,
2013-03-28 22:25:00,64.4,55.6,29.94,South,180,4.5,8.5,73,0.00,,,0.00,WUHU216HW,2013-03-29 04:25:00,
2013-03-28 22:30:00,64.3,55.8,29.95,SSE,158,4.0,8.5,74,0.00,,,0.00,WUHU216HW,2013-03-29 04:30:00,
2013-03-28 22:35:00,63.9,55.4,29.95,SSE,158,5.4,8.5,74,0.00,,,0.00,WUHU216HW,2013-03-29 04:35:00,
2013-03-28 22:40:00,63.7,55.3,29.95,SSE,158,3.4,8.5,74,0.00,,,0.00,WUHU216HW,2013-03-29 04:40:00,
2013-03-28 22:45:00,63.5,55.4,29.94,SSE,158,5.4,8.5,75,0.00,,,0.00,WUHU216HW,2013-03-29 04:45:00,
2013-03-28 22:50:00,63.4,55.6,29.94,South,180,7.2,8.5,76,0.00,,,0.00,WUHU216HW,2013-03-29 04:50:00,
2013-03-28 22:55:00,63.0,55.3,29.95,SE,135,4.0,7.2,76,0.00,,,0.00,WUHU216HW,2013-03-29 04:55:00,
2013-03-28 23:00:00,62.8,55.1,29.94,SE,135,5.1,7.2,76,0.00,,,0.00,WUHU216HW,2013-03-29 05:00:00,
2013-03-28 23:05:00,62.6,54.9,29.94,SW,225,4.3,5.4,76,0.00,,,0.00,WUHU216HW,2013-03-29 05:05:00,
2013-03-28 23:10:00,62.5,54.7,29.94,SSE,158,6.0,6.5,76,0.00,,,0.00,WUHU216HW,2013-03-29 05:10:00,
2013-03-28 23:15:00,62.3,54.9,29.94,SSE,158,5.4,11.4,77,0.00,,,0.00,WUHU216HW,2013-03-29 05:15:00,
2013-03-28 23:20:00,62.1,54.8,29.95,South,180,3.4,11.4,77,0.00,,,0.00,WUHU216HW,2013-03-29 05:20:00,
2013-03-28 23:25:00,61.9,55.0,29.94,SSE,158,3.8,6.5,78,0.00,,,0.00,WUHU216HW,2013-03-29 05:25:00,
2013-03-28 23:30:00,61.7,54.8,29.95,South,180,5.4,5.4,78,0.00,,,0.00,WUHU216HW,2013-03-29 05:30:00,
2013-03-28 23:35:00,61.6,55.0,29.94,SSE,158,2.2,5.4,79,0.00,,,0.00,WUHU216HW,2013-03-29 05:35:00,
2013-03-28 23:40:00,61.6,55.0,29.95,South,180,5.6,5.6,79,0.00,,,0.00,WUHU216HW,2013-03-29 05:40:00,
2013-03-28 23:45:00,61.4,54.8,29.94,WSW,248,1.8,5.6,79,0.00,,,0.00,WUHU216HW,2013-03-29 05:45:00,
2013-03-28 23:50:00,61.2,54.7,29.95,SE,135,2.7,4.5,79,0.00,,,0.00,WUHU216HW,2013-03-29 05:50:00,
2013-03-28 23:55:00,61.0,54.9,29.94,South,180,4.9,4.9,80,0.00,,,0.00,WUHU216HW,2013-03-29 05:55:00,